Location: Davidschlag
(48.4333°N, 14.2833°E)
Time: 09:14:50
(UTC+00:00)

STARLINK-30 - Pass Details

Date: 27 February 2020
Orbit: 529 x 530 km, 53.0° (Epoch: 04 April)

Event Time Altitude Azimuth Distance (km) Brightness Sun altitude
Rises 17:51:18 0° 279° (W) 2,668 9.1 -12.1°
Reaches altitude 10° 17:53:36 10° 286° (WNW) 1,779 7.6 -12.5°
Maximum altitude 17:57:27 42° 358° (N) 765 4.3 -13.2°
Enters shadow 18:00:01 19° 62° (ENE) 1,313 5.0 -13.6°
